LPA727 UNNT-USNN

Flight info

Callsign LPA727
Flight time 1h 8m
Altitude 36000
Route K0811F360 DIMID1K DIMID R484 SOREB T631 PAROM PAROM1R
Aircraft A320/M-SDE3FGHIRWY/LB1

Departure

Time 2026-04-23 14:33
Airport Novosibirsk Tolmachevo Airport (UNNT)

Arrival

Time 2026-04-23 15:42
Airport Nizhnevartovsk Airport (USNN)
Time Latitude Longitude Altitude Speed Heading
2026-04-23 14:06 55.01019 82.66676 373 ft 0 kts 171°
2026-04-23 14:22 55.01022 82.66675 372 ft 2 kts 171°
2026-04-23 14:22 55.01038 82.66669 372 ft 2 kts 167°
2026-04-23 14:22 55.01054 82.66661 372 ft 2 kts 160°
2026-04-23 14:23 55.01070 82.66651 372 ft 2 kts 153°
2026-04-23 14:23 55.01084 82.66637 372 ft 2 kts 144°
2026-04-23 14:23 55.01097 82.66619 372 ft 2 kts 134°
2026-04-23 14:23 55.01108 82.66597 372 ft 2 kts 124°
2026-04-23 14:24 55.01117 82.66573 372 ft 2 kts 124°
2026-04-23 14:24 55.01124 82.66556 372 ft 1 kts 158°
2026-04-23 14:24 55.01125 82.66554 372 ft 0 kts 165°
2026-04-23 14:27 55.01105 82.66561 372 ft 3 kts 170°
2026-04-23 14:27 55.01091 82.66565 373 ft 3 kts 169°
2026-04-23 14:27 55.01077 82.66619 373 ft 6 kts 81°
2026-04-23 14:28 55.01092 82.66662 372 ft 3 kts 29°
2026-04-23 14:28 55.01107 82.66660 372 ft 4 kts 348°
2026-04-23 14:28 55.01170 82.66645 372 ft 12 kts 352°
2026-04-23 14:28 55.01250 82.66624 373 ft 0 kts 351°
2026-04-23 14:29 55.01251 82.66624 373 ft 2 kts 351°
2026-04-23 14:29 55.01269 82.66619 373 ft 0 kts 351°
2026-04-23 14:31 55.01272 82.66618 373 ft 3 kts 351°
2026-04-23 14:31 55.01335 82.66600 373 ft 11 kts 348°
2026-04-23 14:31 55.01373 82.66526 374 ft 7 kts 283°
2026-04-23 14:31 55.01371 82.66483 374 ft 0 kts 261°
2026-04-23 14:32 55.01371 82.66482 374 ft 1 kts 261°
2026-04-23 14:32 55.01344 82.66173 372 ft 68 kts 263°
2026-04-23 14:33 55.01228 82.64856 373 ft 148 kts 261°
2026-04-23 14:33 55.01037 82.62821 661 ft 180 kts 262°
2026-04-23 14:33 55.00847 82.60692 1442 ft 175 kts 257°
2026-04-23 14:33 55.00660 82.58619 2200 ft 173 kts 258°
2026-04-23 14:34 55.00486 82.56452 2592 ft 192 kts 265°
2026-04-23 14:34 55.00899 82.54086 2894 ft 227 kts 304°
2026-04-23 14:34 55.02301 82.52471 3341 ft 262 kts 341°
2026-04-23 14:34 55.04163 82.52166 4157 ft 275 kts 358°
2026-04-23 14:35 55.06083 82.52481 5083 ft 280 kts
2026-04-23 14:35 55.08024 82.53006 5991 ft 284 kts
2026-04-23 14:35 55.09991 82.53553 6843 ft 288 kts
2026-04-23 14:35 55.11984 82.54052 7689 ft 291 kts
2026-04-23 14:36 55.14010 82.54494 8531 ft 295 kts
2026-04-23 14:36 55.16067 82.54890 9369 ft 299 kts
2026-04-23 14:36 55.18168 82.55258 9992 ft 312 kts
2026-04-23 14:36 55.20409 82.55626 10255 ft 335 kts
2026-04-23 14:37 55.22768 82.56007 10791 ft 345 kts
2026-04-23 14:37 55.25184 82.56402 11528 ft 350 kts
2026-04-23 14:37 55.27617 82.56805 12291 ft 354 kts
2026-04-23 14:37 55.30076 82.57215 13055 ft 357 kts
2026-04-23 14:38 55.32565 82.57632 13758 ft 361 kts
2026-04-23 14:38 55.35051 82.58046 14404 ft 364 kts
2026-04-23 14:38 55.37624 82.58476 15059 ft 368 kts
2026-04-23 14:38 55.40183 82.58908 15694 ft 372 kts
2026-04-23 14:39 55.42736 82.59339 16324 ft 375 kts
2026-04-23 14:39 55.45347 82.59783 16962 ft 379 kts
2026-04-23 14:39 55.48018 82.60240 17606 ft 383 kts
2026-04-23 14:39 55.50641 82.60688 18179 ft 386 kts
2026-04-23 14:40 55.53328 82.61143 18714 ft 390 kts
2026-04-23 14:40 55.56043 82.61599 19247 ft 393 kts
2026-04-23 14:40 55.58781 82.62057 19778 ft 397 kts
2026-04-23 14:40 55.61542 82.62519 20308 ft 401 kts
2026-04-23 14:41 55.64338 82.62987 20845 ft 405 kts
2026-04-23 14:41 55.67162 82.63466 21373 ft 409 kts
2026-04-23 14:41 55.70003 82.63952 21894 ft 413 kts
2026-04-23 14:41 55.72881 82.64447 22415 ft 417 kts
2026-04-23 14:42 55.75778 82.64946 22927 ft 421 kts
2026-04-23 14:42 55.78700 82.65446 23383 ft 425 kts
2026-04-23 14:42 55.81657 82.65952 23795 ft 428 kts
2026-04-23 14:42 55.84640 82.66464 24198 ft 432 kts
2026-04-23 14:43 55.87637 82.66981 24591 ft 435 kts
2026-04-23 14:43 55.90665 82.67502 24974 ft 439 kts
2026-04-23 14:43 55.93717 82.68028 25349 ft 442 kts
2026-04-23 14:43 55.96793 82.68559 25722 ft 445 kts
2026-04-23 14:44 55.99891 82.69096 26084 ft 449 kts
2026-04-23 14:44 56.03009 82.69606 26439 ft 450 kts 358°
2026-04-23 14:44 56.06126 82.69521 26792 ft 447 kts 348°
2026-04-23 14:44 56.09175 82.68615 27141 ft 442 kts 339°
2026-04-23 14:45 56.12087 82.66941 27490 ft 438 kts 332°
2026-04-23 14:45 56.14947 82.64989 27848 ft 441 kts 332°
2026-04-23 14:45 56.17826 82.63039 28197 ft 444 kts 332°
2026-04-23 14:45 56.20729 82.61086 28541 ft 446 kts 331°
2026-04-23 14:46 56.23644 82.59132 28873 ft 449 kts 331°
2026-04-23 14:46 56.26541 82.57190 29189 ft 451 kts 331°
2026-04-23 14:46 56.29533 82.55179 29513 ft 454 kts 331°
2026-04-23 14:46 56.32458 82.53204 29805 ft 456 kts 330°
2026-04-23 14:47 56.35433 82.51184 30064 ft 458 kts 330°
2026-04-23 14:47 56.38415 82.49151 30330 ft 459 kts 330°
2026-04-23 14:47 56.41410 82.47104 30593 ft 461 kts 330°
2026-04-23 14:47 56.44416 82.45048 30857 ft 462 kts 329°
2026-04-23 14:48 56.47422 82.42992 31102 ft 464 kts 329°
2026-04-23 14:48 56.50439 82.40925 31452 ft 462 kts 329°
2026-04-23 14:48 56.53446 82.38868 31814 ft 461 kts 329°
2026-04-23 14:48 56.56439 82.36823 32181 ft 460 kts 328°
2026-04-23 14:49 56.59426 82.34775 32537 ft 458 kts 328°
2026-04-23 14:49 56.62406 82.32720 32903 ft 457 kts 328°
2026-04-23 14:49 56.65378 82.30663 33268 ft 455 kts 327°
2026-04-23 14:49 56.68332 82.28613 33628 ft 454 kts 327°
2026-04-23 14:50 56.71286 82.26561 33940 ft 453 kts 327°
2026-04-23 14:50 56.74218 82.24523 34238 ft 452 kts 328°
2026-04-23 14:50 56.77150 82.22485 34537 ft 451 kts 328°
2026-04-23 14:50 56.80079 82.20446 34827 ft 449 kts 328°
2026-04-23 14:51 56.83002 82.18405 35104 ft 448 kts 328°
2026-04-23 14:51 56.85910 82.16375 35383 ft 447 kts 329°
2026-04-23 14:51 56.88809 82.14349 35603 ft 447 kts 329°
2026-04-23 14:51 56.91707 82.12320 35667 ft 443 kts 329°
2026-04-23 14:52 56.97414 82.08319 35674 ft 441 kts 329°
2026-04-23 14:52 57.02907 82.03707 35679 ft 428 kts 320°
2026-04-23 14:53 57.08085 81.98259 35678 ft 429 kts 320°
2026-04-23 14:53 57.13272 81.92835 35680 ft 429 kts 320°
2026-04-23 14:54 57.18455 81.87398 35688 ft 429 kts 320°
2026-04-23 14:54 57.23639 81.81937 35682 ft 429 kts 319°
2026-04-23 14:55 57.28821 81.76450 35685 ft 429 kts 319°
2026-04-23 14:55 57.33986 81.70942 35684 ft 429 kts 319°
2026-04-23 14:56 57.39167 81.65414 35686 ft 429 kts 319°
2026-04-23 14:56 57.44345 81.59866 35687 ft 429 kts 319°
2026-04-23 14:57 57.49480 81.54356 35688 ft 429 kts 319°
2026-04-23 14:57 57.54650 81.48798 35691 ft 430 kts 319°
2026-04-23 14:58 57.59826 81.43206 35693 ft 430 kts 319°
2026-04-23 14:58 57.64997 81.37597 35693 ft 430 kts 319°
2026-04-23 14:59 57.70169 81.31965 35697 ft 431 kts 319°
2026-04-23 14:59 57.75351 81.26318 35697 ft 431 kts 319°
2026-04-23 15:00 57.80540 81.20633 35688 ft 432 kts 319°
2026-04-23 15:00 57.85727 81.14933 35697 ft 433 kts 319°
2026-04-23 15:01 57.90920 81.09203 35706 ft 433 kts 320°
2026-04-23 15:01 57.96111 81.03454 35711 ft 433 kts 320°
2026-04-23 15:02 58.01313 80.97682 35716 ft 434 kts 320°
2026-04-23 15:02 58.06516 80.91887 35705 ft 434 kts 320°
2026-04-23 15:03 58.11719 80.86076 35723 ft 435 kts 321°
2026-04-23 15:03 58.16922 80.80236 35725 ft 435 kts 321°
2026-04-23 15:04 58.22097 80.74416 35726 ft 435 kts 321°
2026-04-23 15:04 58.27339 80.68498 35728 ft 436 kts 321°
2026-04-23 15:05 58.32540 80.62593 35730 ft 436 kts 321°
2026-04-23 15:05 58.37752 80.56668 35728 ft 436 kts 321°
2026-04-23 15:06 58.42932 80.50768 35729 ft 436 kts 321°
2026-04-23 15:06 58.48141 80.44812 35730 ft 437 kts 321°
2026-04-23 15:07 58.53379 80.38778 35731 ft 437 kts 321°
2026-04-23 15:07 58.58584 80.32766 35728 ft 437 kts 321°
2026-04-23 15:08 58.63756 80.26774 35737 ft 437 kts 321°
2026-04-23 15:09 58.71564 80.17701 35729 ft 438 kts 321°
2026-04-23 15:09 58.76776 80.11630 35739 ft 438 kts 321°
2026-04-23 15:10 58.81138 80.06517 35736 ft 438 kts 321°
2026-04-23 15:10 58.87171 79.99373 35735 ft 438 kts 321°
2026-04-23 15:11 58.91512 79.94189 35738 ft 438 kts 321°
2026-04-23 15:11 58.97542 79.86977 35738 ft 438 kts 321°
2026-04-23 15:12 59.02724 79.80758 35741 ft 438 kts 321°
2026-04-23 15:12 59.07069 79.75535 35739 ft 439 kts 321°
2026-04-23 15:13 59.12233 79.69321 35736 ft 439 kts 321°
2026-04-23 15:13 59.17421 79.63035 35736 ft 439 kts 320°
2026-04-23 15:14 59.22605 79.56711 35735 ft 439 kts 320°
2026-04-23 15:14 59.27793 79.50374 35733 ft 440 kts 321°
2026-04-23 15:15 59.32992 79.44031 35734 ft 440 kts 321°
2026-04-23 15:15 59.38184 79.37668 35734 ft 440 kts 320°
2026-04-23 15:16 59.43366 79.31262 35739 ft 440 kts 320°
2026-04-23 15:16 59.48553 79.24834 35736 ft 441 kts 320°
2026-04-23 15:17 59.53733 79.18389 35739 ft 441 kts 320°
2026-04-23 15:17 59.58925 79.11925 35742 ft 441 kts 321°
2026-04-23 15:18 59.64081 79.05497 35742 ft 441 kts 320°
2026-04-23 15:18 59.69258 78.98987 35736 ft 441 kts 320°
2026-04-23 15:19 59.74427 78.92453 35659 ft 441 kts 320°
2026-04-23 15:19 59.77028 78.89156 34883 ft 445 kts 320°
2026-04-23 15:19 59.79631 78.85860 34363 ft 442 kts 320°
2026-04-23 15:19 59.82219 78.82581 33811 ft 440 kts 319°
2026-04-23 15:20 59.84789 78.79316 33203 ft 437 kts 319°
2026-04-23 15:20 59.87338 78.76076 32675 ft 433 kts 319°
2026-04-23 15:20 59.89862 78.72866 32130 ft 429 kts 319°
2026-04-23 15:20 59.92368 78.69667 31596 ft 426 kts 318°
2026-04-23 15:21 59.94859 78.66476 31062 ft 423 kts 318°
2026-04-23 15:21 59.97324 78.63310 30547 ft 421 kts 318°
2026-04-23 15:21 59.99778 78.60154 30026 ft 418 kts 317°
2026-04-23 15:21 60.02214 78.57014 29461 ft 416 kts 317°
2026-04-23 15:22 60.04637 78.53886 28957 ft 411 kts 317°
2026-04-23 15:22 60.07022 78.50811 28468 ft 406 kts 317°
2026-04-23 15:22 60.09385 78.47759 27996 ft 401 kts 318°
2026-04-23 15:22 60.11715 78.44742 27527 ft 397 kts 318°
2026-04-23 15:23 60.14020 78.41744 27082 ft 392 kts 318°
2026-04-23 15:23 60.16295 78.38776 26644 ft 388 kts 318°
2026-04-23 15:23 60.18546 78.35835 26209 ft 384 kts 318°
2026-04-23 15:23 60.20769 78.32927 25773 ft 381 kts 318°
2026-04-23 15:24 60.22985 78.30026 25341 ft 377 kts 318°
2026-04-23 15:24 60.25173 78.27161 24888 ft 375 kts 319°
2026-04-23 15:24 60.27355 78.24302 24434 ft 372 kts 319°
2026-04-23 15:24 60.29512 78.21470 23979 ft 370 kts 319°
2026-04-23 15:25 60.31659 78.18637 23518 ft 367 kts 319°
2026-04-23 15:25 60.33797 78.15811 23001 ft 366 kts 319°
2026-04-23 15:25 60.35914 78.13018 22527 ft 363 kts 319°
2026-04-23 15:25 60.38019 78.10243 22063 ft 359 kts 319°
2026-04-23 15:26 60.40100 78.07493 21594 ft 356 kts 319°
2026-04-23 15:26 60.42168 78.04746 21138 ft 353 kts 319°
2026-04-23 15:26 60.44184 78.02060 20701 ft 350 kts 319°
2026-04-23 15:26 60.46210 77.99350 20263 ft 348 kts 319°
2026-04-23 15:27 60.48224 77.96657 19817 ft 346 kts 320°
2026-04-23 15:27 60.50224 77.93981 19380 ft 343 kts 320°
2026-04-23 15:27 60.52213 77.91318 18943 ft 341 kts 320°
2026-04-23 15:27 60.54191 77.88671 18517 ft 340 kts 320°
2026-04-23 15:28 60.56161 77.86036 18092 ft 338 kts 320°
2026-04-23 15:28 60.58121 77.83403 17626 ft 336 kts 320°
2026-04-23 15:28 60.60065 77.80786 17202 ft 333 kts 320°
2026-04-23 15:28 60.61970 77.78150 16649 ft 331 kts 315°
2026-04-23 15:29 60.63606 77.74811 15720 ft 337 kts 307°
2026-04-23 15:29 60.65172 77.71326 15108 ft 329 kts 307°
2026-04-23 15:29 60.66691 77.67955 14627 ft 316 kts 307°
2026-04-23 15:29 60.68161 77.64695 14256 ft 310 kts 306°
2026-04-23 15:30 60.69613 77.61454 13875 ft 308 kts 306°
2026-04-23 15:30 60.71055 77.58224 13499 ft 307 kts 306°
2026-04-23 15:30 60.72487 77.55003 13091 ft 305 kts 306°
2026-04-23 15:30 60.73906 77.51813 12708 ft 302 kts 306°
2026-04-23 15:31 60.75313 77.48647 12333 ft 299 kts 306°
2026-04-23 15:31 60.76708 77.45506 11953 ft 297 kts 307°
2026-04-23 15:31 60.78086 77.42404 11709 ft 290 kts 307°
2026-04-23 15:31 60.79410 77.39426 11443 ft 285 kts 306°
2026-04-23 15:32 60.80753 77.36389 11035 ft 284 kts 307°
2026-04-23 15:32 60.82085 77.33361 10501 ft 288 kts 307°
2026-04-23 15:32 60.83431 77.30300 10070 ft 288 kts 307°
2026-04-23 15:32 60.84769 77.27259 9695 ft 286 kts 307°
2026-04-23 15:33 60.86101 77.24236 9273 ft 285 kts 307°
2026-04-23 15:33 60.87407 77.21276 8867 ft 282 kts 308°
2026-04-23 15:33 60.88714 77.18304 8488 ft 279 kts 308°
2026-04-23 15:33 60.90006 77.15358 8088 ft 276 kts 308°
2026-04-23 15:34 60.91283 77.12440 7693 ft 273 kts 308°
2026-04-23 15:34 60.92547 77.09545 7292 ft 271 kts 308°
2026-04-23 15:34 60.93799 77.06678 6887 ft 269 kts 308°
2026-04-23 15:34 60.95040 77.03833 6475 ft 262 kts 309°
2026-04-23 15:35 60.96223 77.01115 6089 ft 249 kts 309°
2026-04-23 15:35 60.97351 76.98522 5680 ft 237 kts 309°
2026-04-23 15:35 60.98422 76.96054 5325 ft 224 kts 308°
2026-04-23 15:35 60.99457 76.93668 5002 ft 221 kts 308°
2026-04-23 15:36 61.00455 76.91372 4873 ft 211 kts 308°
2026-04-23 15:36 61.01384 76.89072 4589 ft 207 kts 298°
2026-04-23 15:36 61.01936 76.86373 4257 ft 204 kts 283°
2026-04-23 15:36 61.02308 76.83560 3903 ft 201 kts 283°
2026-04-23 15:37 61.02678 76.80832 3566 ft 194 kts 284°
2026-04-23 15:37 61.03036 76.78198 3235 ft 188 kts 283°
2026-04-23 15:37 61.03269 76.76495 3024 ft 184 kts 284°
2026-04-23 15:37 61.03726 76.73151 2597 ft 179 kts 284°
2026-04-23 15:38 61.04060 76.70696 2302 ft 177 kts 284°
2026-04-23 15:38 61.04317 76.68253 2004 ft 174 kts 271°
2026-04-23 15:38 61.04074 76.65888 1797 ft 162 kts 245°
2026-04-23 15:38 61.03444 76.64159 1788 ft 143 kts 226°
2026-04-23 15:39 61.02728 76.62815 1791 ft 136 kts 226°
2026-04-23 15:39 61.02035 76.61516 1727 ft 133 kts 226°
2026-04-23 15:39 61.01362 76.60252 1638 ft 130 kts 226°
2026-04-23 15:39 61.00698 76.59007 1469 ft 129 kts 226°
2026-04-23 15:40 61.00037 76.57765 1289 ft 128 kts 226°
2026-04-23 15:40 60.99375 76.56523 1101 ft 129 kts 225°
2026-04-23 15:40 60.98711 76.55276 921 ft 130 kts 224°
2026-04-23 15:40 60.98035 76.54008 723 ft 132 kts 223°
2026-04-23 15:41 60.97354 76.52731 553 ft 132 kts 223°
2026-04-23 15:41 60.96669 76.51457 392 ft 133 kts 223°
2026-04-23 15:41 60.95983 76.50184 236 ft 132 kts 223°
2026-04-23 15:41 60.95350 76.48979 192 ft 110 kts 222°
2026-04-23 15:42 60.94911 76.48162 186 ft 58 kts 222°
2026-04-23 15:42 60.94761 76.47946 195 ft 15 kts 168°
2026-04-23 15:42 60.94726 76.48117 187 ft 14 kts 86°
2026-04-23 15:42 60.94728 76.48173 187 ft 0 kts 86°
2026-04-23 15:43 60.94729 76.48188 187 ft 6 kts 86°
2026-04-23 15:44 60.94745 76.48319 189 ft 9 kts 53°
2026-04-23 15:44 60.94806 76.48437 199 ft 14 kts 42°
2026-04-23 15:44 60.94849 76.48571 188 ft 9 kts 94°
2026-04-23 15:44 60.94836 76.48594 186 ft 1 kts 143°
2026-04-23 15:45 60.94828 76.48618 189 ft 5 kts 129°
2026-04-23 15:45 60.94821 76.48635 191 ft 0 kts 131°